Epoch 1999 Dec. 8.0 TT = JDT 2451520.5 T 1999 Nov. 27.56719 TT MPC q 3.4364346 (2000.0) P Q z +0.0003036 Peri. 285.93613 +0.01054452 +0.76573983 +/-0.000000 Node 317.66385 +0.00179349 -0.64311321 e 0.9989567 Incl. 72.71508 -0.99994280 +0.00692134 From 424 observations 1997 Jan. 11-2004 Sept. 15, mean residual 0".8.
m1 = 3.0 + 5 logΔ + 12.5 log r [ ,520] ( 〜2001年 4月30日) m1 = 32.5 + 5 logΔ - 26.5 log r [520,605] (2001年 4月30日〜2001年 7月24日) m1 = -0.7 + 5 logΔ + 15.0 log r [605, ] (2001年 7月24日〜 )